• Em Portugal
  • Lista de países
  • Para 7 dias
  • Temperatura da água
  • Mapas de satélite
  • Mapa do tempo
  • Widgets de tempo
  • user-avatar
    Iniciar Sessão

    Previsão horária em Escaldes-Engordany

    Hoje, 17 Dezembro, Domingo

    Tempo Temperatura Precipitação Vento Pressão Humidade
    00:00 -7°C° 0 mm 3 m/s 639 mmHg 76%
    01:00 -8°C° 0 mm 3 m/s 640 mmHg 76%
    02:00 -8°C° 0 mm 3 m/s 640 mmHg 76%
    03:00 -8°C° 0 mm 3 m/s 640 mmHg 75%
    04:00 -8°C° 0 mm 3 m/s 640 mmHg 75%
    05:00 -8°C° 0 mm 3 m/s 640 mmHg 74%
    06:00 -8°C° 0 mm 3 m/s 640 mmHg 73%
    07:00 -7°C° 0 mm 3 m/s 641 mmHg 70%
    08:00 -6°C° 0 mm 3 m/s 642 mmHg 67%
    09:00 -5°C° 0 mm 3 m/s 642 mmHg 64%
    10:00 -4°C° 0 mm 3 m/s 643 mmHg 61%
    11:00 -2°C° 0 mm 3 m/s 643 mmHg 58%
    12:00 -1°C° 0 mm 4 m/s 644 mmHg 55%
    13:00 -2°C° 0 mm 4 m/s 644 mmHg 59%
    14:00 -1°C° 0 mm 3 m/s 644 mmHg 62%
    15:00 -1°C° 0 mm 3 m/s 643 mmHg 66%
    16:00 -2°C° 0 mm 3 m/s 643 mmHg 70%
    17:00 -2°C° 0 mm 3 m/s 643 mmHg 74%
    18:00 -4°C° 0 mm 3 m/s 643 mmHg 78%
    19:00 -4°C° 0 mm 3 m/s 644 mmHg 78%
    20:00 -4°C° 0 mm 3 m/s 644 mmHg 79%
    21:00 -4°C° 0 mm 3 m/s 644 mmHg 80%
    22:00 -4°C° 0 mm 3 m/s 645 mmHg 80%
    23:00 -4°C° 0 mm 3 m/s 645 mmHg 80%

    Amanhã, 18 Dezembro, Segunda-feira

    Tempo Temperatura Precipitação Vento Pressão Humidade
    00:00 -4°C° 0 mm 3 m/s 645 mmHg 81%
    01:00 -4°C° 0 mm 3 m/s 645 mmHg 81%
    02:00 -4°C° 0 mm 3 m/s 644 mmHg 82%
    03:00 -5°C° 0 mm 3 m/s 644 mmHg 82%
    04:00 -4°C° 0 mm 3 m/s 644 mmHg 82%
    05:00 -4°C° 0 mm 3 m/s 644 mmHg 82%
    06:00 -4°C° 0 mm 3 m/s 644 mmHg 81%
    07:00 -2°C° 0 mm 3 m/s 645 mmHg 79%
    08:00 -1°C° 0 mm 3 m/s 645 mmHg 77%
    09:00 0°C° 0 mm 3 m/s 645 mmHg 75%
    10:00 +1°C° 0 mm 3 m/s 645 mmHg 73%
    11:00 +2°C° 0 mm 3 m/s 645 mmHg 71%
    12:00 +3°C° 0 mm 3 m/s 645 mmHg 69%
    13:00 +3°C° 0,1 mm 3 m/s 645 mmHg 71%
    14:00 +3°C° 0,1 mm 3 m/s 644 mmHg 72%
    15:00 +3°C° 0,1 mm 3 m/s 643 mmHg 74%
    16:00 +2°C° 0,3 mm 3 m/s 643 mmHg 77%
    17:00 +2°C° 0,3 mm 3 m/s 643 mmHg 81%
    18:00 0°C° 0,3 mm 4 m/s 642 mmHg 85%
    19:00 0°C° 0,2 mm 4 m/s 642 mmHg 86%
    20:00 0°C° 0,2 mm 4 m/s 642 mmHg 87%
    21:00 0°C° 0,2 mm 4 m/s 642 mmHg 87%
    22:00 0°C° 0,1 mm 4 m/s 642 mmHg 87%
    23:00 -1°C° 0,1 mm 4 m/s 642 mmHg 87%

    Depois de amanhã, 19 Dezembro, Terça-feira

    Tempo Temperatura Precipitação Vento Pressão Humidade
    00:00 -1°C° 0,1 mm 4 m/s 642 mmHg 88%
    01:00 -1°C° 0 mm 4 m/s 642 mmHg 88%
    02:00 -2°C° 0 mm 4 m/s 642 mmHg 88%
    03:00 -2°C° 0 mm 3 m/s 642 mmHg 88%
    04:00 -2°C° 0 mm 3 m/s 642 mmHg 88%
    05:00 -4°C° 0 mm 3 m/s 643 mmHg 88%
    06:00 -4°C° 0 mm 3 m/s 643 mmHg 88%
    07:00 -4°C° 0 mm 3 m/s 643 mmHg 83%
    08:00 -4°C° 0 mm 3 m/s 644 mmHg 78%
    09:00 -2°C° 0 mm 3 m/s 645 mmHg 73%
    10:00 -1°C° 0 mm 3 m/s 645 mmHg 67%
    11:00 0°C° 0 mm 3 m/s 646 mmHg 62%
    12:00 +3°C° 0 mm 2 m/s 646 mmHg 56%
    13:00 +1°C° 0 mm 3 m/s 646 mmHg 59%
    14:00 +1°C° 0 mm 3 m/s 646 mmHg 61%
    15:00 +1°C° 0 mm 3 m/s 646 mmHg 63%
    16:00 -1°C° 0 mm 3 m/s 645 mmHg 69%
    17:00 -3°C° 0 mm 2 m/s 645 mmHg 75%
    18:00 -4°C° 0 mm 2 m/s 645 mmHg 81%
    19:00 -4°C° 0 mm 2 m/s 645 mmHg 79%
    20:00 -4°C° 0 mm 2 m/s 645 mmHg 77%
    21:00 -5°C° 0 mm 2 m/s 646 mmHg 75%
    22:00 -4°C° 0 mm 2 m/s 646 mmHg 73%
    23:00 -4°C° 0 mm 2 m/s 646 mmHg 71%

    20 Dezembro, Quarta-feira

    Tempo Temperatura Precipitação Vento Pressão Humidade
    00:00 -4°C° 0 mm 2 m/s 646 mmHg 68%
    01:00 -4°C° 0 mm 2 m/s 646 mmHg 68%
    02:00 -4°C° 0 mm 2 m/s 645 mmHg 68%
    03:00 -4°C° 0 mm 2 m/s 645 mmHg 67%
    04:00 -4°C° 0 mm 2 m/s 645 mmHg 67%
    05:00 -4°C° 0 mm 2 m/s 645 mmHg 66%
    06:00 -5°C° 0 mm 3 m/s 645 mmHg 65%
    07:00 -2°C° 0 mm 3 m/s 646 mmHg 64%
    08:00 -1°C° 0 mm 3 m/s 646 mmHg 63%
    09:00 0°C° 0 mm 3 m/s 647 mmHg 62%
    10:00 +1°C° 0 mm 3 m/s 647 mmHg 62%
    11:00 +3°C° 0 mm 3 m/s 647 mmHg 61%
    12:00 +4°C° 0 mm 3 m/s 647 mmHg 61%
    13:00 +4°C° 0 mm 3 m/s 647 mmHg 63%
    14:00 +4°C° 0 mm 3 m/s 647 mmHg 65%
    15:00 +3°C° 0 mm 3 m/s 647 mmHg 68%
    16:00 +2°C° 0 mm 3 m/s 647 mmHg 72%
    17:00 0°C° 0 mm 3 m/s 646 mmHg 76%
    18:00 -1°C° 0 mm 3 m/s 646 mmHg 80%
    19:00 -2°C° 0 mm 3 m/s 647 mmHg 80%
    20:00 -2°C° 0 mm 3 m/s 647 mmHg 79%
    21:00 -2°C° 0 mm 3 m/s 647 mmHg 79%
    22:00 -2°C° 0 mm 2 m/s 648 mmHg 79%
    23:00 -2°C° 0 mm 2 m/s 648 mmHg 79%

    21 Dezembro, Quinta-feira

    Tempo Temperatura Precipitação Vento Pressão Humidade
    00:00 -2°C° 0 mm 2 m/s 648 mmHg 79%
    01:00 -2°C° 0 mm 2 m/s 648 mmHg 79%
    02:00 -2°C° 0 mm 2 m/s 648 mmHg 78%
    03:00 -2°C° 0 mm 2 m/s 648 mmHg 78%
    04:00 -2°C° 0 mm 2 m/s 648 mmHg 78%
    05:00 -2°C° 0 mm 2 m/s 648 mmHg 77%
    06:00 -2°C° 0 mm 2 m/s 648 mmHg 77%
    07:00 -1°C° 0 mm 2 m/s 649 mmHg 74%
    08:00 +1°C° 0 mm 2 m/s 649 mmHg 70%
    09:00 +3°C° 0 mm 1 m/s 650 mmHg 67%
    10:00 +5°C° 0 mm 1 m/s 650 mmHg 65%
    11:00 +6°C° 0 mm 1 m/s 651 mmHg 63%
    12:00 +7°C° 0 mm 1 m/s 651 mmHg 60%
    13:00 +7°C° 0 mm 1 m/s 650 mmHg 63%
    14:00 +7°C° 0 mm 1 m/s 650 mmHg 65%
    15:00 +6°C° 0 mm 1 m/s 650 mmHg 68%
    16:00 +5°C° 0 mm 1 m/s 649 mmHg 71%
    17:00 +3°C° 0 mm 1 m/s 649 mmHg 74%
    18:00 +1°C° 0 mm 2 m/s 648 mmHg 77%
    19:00 +1°C° 0 mm 2 m/s 648 mmHg 75%
    20:00 +1°C° 0 mm 2 m/s 648 mmHg 72%
    21:00 +1°C° 0 mm 2 m/s 648 mmHg 70%
    22:00 -1°C° 0 mm 2 m/s 648 mmHg 70%
    23:00 -1°C° 0 mm 2 m/s 648 mmHg 69%

    22 Dezembro, Sexta-feira

    Tempo Temperatura Precipitação Vento Pressão Humidade
    00:00 -1°C° 0 mm 2 m/s 648 mmHg 68%
    01:00 -1°C° 0 mm 2 m/s 648 mmHg 69%
    02:00 -1°C° 0 mm 2 m/s 647 mmHg 70%
    03:00 -1°C° 0 mm 2 m/s 647 mmHg 71%
    04:00 -1°C° 0 mm 2 m/s 647 mmHg 73%
    05:00 -1°C° 0 mm 2 m/s 647 mmHg 74%
    06:00 -1°C° 0 mm 2 m/s 647 mmHg 76%
    07:00 -1°C° 0 mm 3 m/s 648 mmHg 75%
    08:00 0°C° 0 mm 3 m/s 648 mmHg 75%
    09:00 +1°C° 0 mm 3 m/s 648 mmHg 74%
    10:00 +2°C° 0 mm 3 m/s 649 mmHg 72%
    11:00 +3°C° 0 mm 3 m/s 649 mmHg 70%
    12:00 +4°C° 0 mm 3 m/s 649 mmHg 68%
    13:00 +3°C° 0 mm 3 m/s 648 mmHg 69%
    14:00 +3°C° 0 mm 3 m/s 648 mmHg 70%
    15:00 +3°C° 0 mm 3 m/s 648 mmHg 70%
    16:00 +2°C° 0 mm 3 m/s 648 mmHg 74%
    17:00 0°C° 0 mm 4 m/s 647 mmHg 77%
    18:00 -1°C° 0 mm 4 m/s 647 mmHg 80%
    19:00 -1°C° 0 mm 4 m/s 647 mmHg 80%
    20:00 -2°C° 0 mm 4 m/s 648 mmHg 81%
    21:00 -2°C° 0 mm 4 m/s 648 mmHg 81%
    22:00 -2°C° 0 mm 4 m/s 648 mmHg 81%
    23:00 -3°C° 0 mm 4 m/s 647 mmHg 81%
    Mostrar mais